User: anonymous   Login
Location: Unspecified
(0.0000°N, 0.0000°E)
Time: 10:22:55
(UTC+00:00)
Language:

GALILEO 7 (263) - Orbit

View from above orbital plane
View from above orbital plane
View from above satellite
View from above satellite

Ground track
Ground track

The orbit data is extracted from the following two-line orbital elements,

1 40544U 15017A   22272.44409769 -.00000076  00000-0  00000-0 0  9993
2 40544  56.8275  18.5340 0003573 224.3012 135.6891  1.70476154 46070
Epoch (UTC): 29 September 2022 10:39:30
Eccentricity: 0.0003573
inclination: 56.8275°
perigee height: 23211 km
apogee height: 23232 km
right ascension of ascending node: 18.5340°
argument of perigee: 224.3012°
revolutions per day: 1.70476154
mean anomaly at epoch: 135.6891°
orbit number at epoch: 4607

The dashed part of the orbit path shows where the satellite is in the earth's shadow,  

DLR